Wind_Speed
19 19 18 17 16 15 14 14 14 14 12 10 8 7 7 7 7 7 9 9 7 8 9 6 8 9 6 11 8 7 10 8 10 11 8 11 12 6 10 6 6 11 12
21 21 20 19 18 17 17 17 16 16 13 11 10 9 8 8 8 8 9 7 13 11 12 9 7 10 7 9 8 8 7 8 9 10 11 8 1 5 8 2 7 8 9
22 22 22 21 20 19 19 19 20 19 16 16 13 11 11 10 8 10 10 10 10 10 9 10 9 9 8 7 9 8 8 7 9 12 8 8 2 8 6 5 6 5 8
22 22 22 22 22 21 19 19 20 21 18 17 16 15 11 10 8 8 8 8 9 10 11 11 12 11 8 10 9 12 9 10 11 10 11 11 11 10 8 6 7 10 7
22 23 23 22 21 21 20 20 21 21 22 20 18 17 13 11 9 8 9 9 11 11 11 12 12 11 9 11 12 14 14 14 15 15 15 17 14 14 14 13 10 7 10
21 21 21 21 21 22 21 20 21 23 22 22 20 21 17 13 12 10 10 8 7 9 11 11 14 14 13 14 14 14 14 16 16 16 17 17 14 15 16 18 16 14 14
18 21 21 22 22 23 22 22 22 23 24 25 24 22 21 17 15 15 11 10 8 8 9 15 14 13 16 14 17 17 16 17 16 18 17 18 20 19 18 19 19 17 15
16 21 23 22 22 23 24 24 24 24 25 24 24 22 20 18 16 15 13 12 10 10 10 13 15 17 19 19 18 17 17 14 15 16 19 19 20 22 19 21 19 18 18
5 10 18 22 23 23 25 26 26 24 23 22 22 23 22 21 16 16 14 11 12 13 16 17 17 16 16 17 17 16 16 15 14 13 15 22 27 22 19 15 16 17 17
7 9 10 17 21 22 22 23 24 24 22 21 20 20 21 21 19 20 19 17 16 15 17 17 16 16 13 13 14 13 13 15 11 10 14 15 12 14 12 10 11 14 13
8 7 10 12 16 19 21 23 22 21 20 20 19 16 16 16 16 17 18 20 18 18 20 20 17 16 14 14 14 12 13 17 13 10 10 12 8 6 5 9 12 14 13
7 8 9 11 14 17 18 19 20 21 18 15 16 17 15 15 14 18 16 15 16 18 20 16 16 17 16 15 15 13 12 13 13 13 13 9 5 4 4 7 11 16 20
11 10 9 11 13 15 15 17 18 18 19 16 14 13 11 10 12 12 13 14 17 17 15 17 18 18 18 18 17 17 16 14 15 15 16 17 16 15 17 19 15 15 17
14 14 12 11 13 14 15 15 14 15 15 14 12 11 8 8 8 9 11 11 13 17 17 15 18 19 19 18 18 19 17 17 17 16 18 18 18 20 19 18 18 19 17
18 16 15 14 14 14 14 14 13 14 12 12 10 9 7 7 9 9 10 11 12 13 14 17 19 19 19 18 18 18 16 14 17 19 19 19 21 21 23 21 19 19 21
21 20 18 17 17 16 14 14 14 12 11 10 7 8 9 8 4 4 4 6 8 11 12 14 16 17 17 18 20 20 20 20 19 19 20 19 20 23 22 20 18 19 18
24 24 23 21 19 17 16 14 12 10 9 8 7 6 6 4 4 2 2 3 4 6 8 10 12 14 15 17 17 21 20 17 17 20 18 20 17 18 22 25 19 17 16
28 26 25 24 22 19 16 14 12 11 10 10 9 7 6 6 4 2 5 8 11 13 15 15 15 16 14 17 20 20 21 20 17 17 19 20 21 20 19 17 17 15 15
34 30 26 25 23 22 20 17 15 13 12 11 11 9 7 5 5 7 8 11 16 19 21 19 21 23 23 22 27 26 24 23 21 19 20 22 23 22 21 25 28 25 22
35 31 27 25 22 21 20 17 15 14 12 11 9 7 5 4 4 9 15 20 23 21 16 22 24 25 26 27 27 28 25 21 20 22 23 23 28 26 23 25 25 31 29
35 32 29 26 24 21 19 18 15 14 13 11 8 6 3 4 10 12 18 22 23 25 27 28 30 29 23 19 20 23 21 19 19 19 20 20 24 18 15 21 25 30 29
33 31 27 24 23 21 19 17 15 14 14 10 9 6 6 6 8 14 19 22 24 24 23 24 24 21 21 20 20 21 22 23 23 20 20 20 24 26 28 29 32 32 32
23 24 21 22 20 20 17 17 17 14 12 10 6 4 7 11 14 19 21 19 20 23 24 24 22 22 20 18 19 20 23 21 21 17 18 23 22 23 30 37 38 39 40
21 22 23 20 18 17 16 17 14 13 12 12 11 10 13 16 18 16 17 20 20 21 21 22 22 22 21 20 19 17 13 14 18 22 23 23 24 26 28 29 29 31 33
19 20 19 19 18 18 17 11 10 6 4 9 12 13 16 11 17 21 20 22 23 22 22 24 24 25 25 23 26 28 31 33 33 38 38 34 33 33 32 31 31 31 30
17 17 16 14 13 13 13 11 10 9 10 12 12 10 13 17 20 22 24 25 26 26 26 24 27 27 27 31 31 35 38 40 41 43 35 34 33 34 33 33 32 30 30
Wind_Direction
197 195 195 194 192 192 193 192 189 193 186 185 189 195 214 228 237 230 234 229 240 231 244 246 267 276 278 273 274 292 290 279 291 304 308 295 260 274 277 258 281 228 229
196 200 200 201 201 201 200 200 200 203 199 199 197 203 214 225 237 243 249 249 252 233 239 246 237 270 267 283 281 286 280 296 303 305 308 295 313 266 276 35 224 245 256
198 199 203 203 204 203 205 206 205 208 212 194 205 213 213 225 231 239 242 250 243 251 250 241 249 255 269 275 279 307 291 296 300 276 297 297 270 322 225 226 223 219 241
200 200 201 205 204 204 206 208 208 208 216 209 209 211 212 217 230 233 232 230 234 240 244 248 266 270 248 256 268 289 259 275 279 280 280 262 273 285 302 246 240 254 265
199 202 204 201 204 203 203 207 208 207 205 219 205 222 218 227 231 229 234 242 231 244 242 246 250 255 260 273 269 277 272 280 279 274 273 271 272 268 256 262 268 251 272
198 202 203 200 201 199 201 203 207 211 209 217 218 213 217 218 218 233 232 244 251 258 272 258 244 249 255 265 271 277 277 283 275 276 270 275 267 267 256 258 264 273 273
203 198 206 203 200 198 201 202 208 210 210 216 218 220 223 220 225 227 242 241 245 253 256 263 266 260 279 279 279 282 281 288 283 283 277 280 271 272 255 253 258 270 278
208 216 201 208 206 203 202 204 207 207 213 216 221 224 226 225 229 233 232 243 250 254 259 259 261 260 264 272 273 279 290 285 283 284 289 279 268 269 264 259 259 267 274
183 210 209 203 207 206 205 205 206 208 210 213 218 222 227 224 230 228 238 249 266 266 264 261 264 268 272 269 267 271 271 274 285 282 295 294 281 250 240 261 258 262 280
177 188 207 202 205 210 205 204 207 209 208 207 214 221 230 234 234 234 241 239 245 263 275 270 275 280 271 267 274 263 274 280 283 285 306 316 312 240 301 282 258 261 269
169 194 198 206 203 207 207 209 207 206 208 211 211 218 225 232 244 245 246 251 252 265 283 282 274 266 265 264 271 268 238 249 272 272 308 334 310 279 292 291 266 263 266
162 172 184 192 198 202 204 205 207 209 209 205 205 213 216 221 243 250 242 251 250 263 278 279 268 264 264 265 266 265 246 257 262 269 273 280 312 290 250 247 266 257 258
161 162 164 179 184 188 190 194 197 201 203 201 196 199 218 241 250 243 248 245 257 272 272 271 270 273 270 271 265 262 259 257 258 262 268 271 269 271 271 278 270 272 280
168 167 163 165 166 167 172 173 182 183 187 197 203 212 227 243 243 245 252 252 261 268 280 275 268 275 278 274 272 268 266 265 258 262 263 266 268 273 278 276 275 275 274
179 169 164 166 161 162 162 164 171 172 178 182 196 210 210 213 223 246 266 278 284 282 285 278 282 284 285 282 278 277 278 282 274 264 262 273 281 275 274 274 265 260 270
188 175 171 172 169 168 163 161 165 176 180 188 198 215 231 244 248 259 288 301 303 307 303 301 299 294 290 289 284 279 271 266 263 266 265 273 273 281 288 274 268 281 284
194 181 177 177 177 174 169 166 166 174 197 208 197 180 155 169 186 209 233 278 302 299 299 296 299 299 296 290 289 286 286 283 270 267 268 267 270 278 264 276 272 278 279
203 193 180 177 175 171 168 167 167 173 168 155 155 167 165 181 195 260 297 306 309 313 313 312 307 300 298 290 287 285 289 287 279 273 269 269 270 267 252 259 256 267 272
208 202 190 180 172 168 166 161 161 165 161 162 165 175 186 213 263 281 301 312 313 311 309 307 302 301 299 291 292 290 286 285 278 270 270 269 270 270 266 254 255 265 274
201 201 196 175 175 171 165 163 164 163 165 169 182 195 219 249 301 318 322 321 319 320 305 302 303 302 298 293 289 292 292 285 282 279 276 275 281 288 285 272 260 259 268
193 192 185 175 177 174 169 161 166 171 177 173 175 192 221 305 322 315 322 320 316 311 309 307 312 314 315 315 311 310 306 296 289 279 276 274 277 285 277 271 264 261 263
180 185 169 175 175 173 170 162 162 176 191 193 196 213 257 282 277 307 316 308 309 313 313 310 307 301 303 302 298 298 298 301 303 290 279 273 275 273 274 271 270 268 268
152 162 169 173 178 172 168 162 172 191 180 182 189 212 261 285 303 306 302 309 311 304 302 300 299 299 298 295 293 295 297 299 299 292 291 292 287 282 269 264 269 272 271
157 166 164 166 170 163 158 167 184 188 193 224 230 267 285 302 304 301 294 297 299 297 297 298 298 296 293 293 295 291 288 299 300 297 287 276 274 276 280 277 276 267 265
154 148 152 166 162 158 155 150 160 168 200 256 273 283 299 301 289 295 296 294 293 292 292 293 296 296 292 289 279 280 283 285 287 289 286 282 276 273 270 269 269 266 265
131 147 157 153 150 154 178 187 194 218 266 277 297 299 278 292 295 298 300 297 298 300 296 297 301 297 293 298 300 300 300 297 298 296 288 278 270 267 266 266 266 264 262
Height
1551 1555 1558 1561 1563 1566 1569 1571 1572 1574 1575 1578 1580 1582 1583 1584 1584 1585 1586 1587 1588 1588 1588 1588 1588 1587 1587 1587 1586 1587 1585 1585 1583 1581 1580 1578 1575 1574 1572 1570 1572 1573 1574
1547 1551 1555 1558 1560 1563 1565 1567 1569 1570 1572 1576 1578 1580 1581 1582 1583 1583 1583 1584 1584 1585 1586 1586 1587 1586 1587 1585 1584 1583 1583 1583 1582 1580 1580 1576 1576 1574 1572 1570 1573 1573 1572
1541 1546 1550 1553 1556 1559 1562 1564 1565 1566 1568 1572 1574 1576 1577 1578 1580 1581 1581 1581 1581 1582 1583 1583 1584 1584 1584 1585 1583 1582 1582 1582 1580 1577 1577 1575 1573 1572 1570 1569 1570 1568 1571
1536 1540 1544 1548 1551 1555 1558 1561 1562 1564 1566 1568 1572 1573 1575 1576 1577 1578 1579 1580 1580 1580 1581 1581 1581 1580 1581 1582 1581 1579 1579 1578 1577 1576 1575 1574 1574 1573 1572 1569 1569 1567 1566
1529 1533 1536 1541 1545 1550 1554 1557 1559 1560 1562 1564 1567 1571 1572 1575 1576 1577 1577 1576 1578 1578 1578 1579 1579 1578 1578 1578 1578 1577 1575 1573 1572 1572 1571 1571 1569 1570 1568 1566 1566 1564 1564
1521 1528 1531 1535 1540 1545 1550 1553 1555 1556 1558 1561 1563 1566 1569 1571 1573 1573 1574 1575 1575 1575 1574 1575 1575 1575 1575 1575 1573 1571 1570 1569 1567 1567 1566 1566 1565 1565 1563 1563 1562 1560 1559
1515 1521 1528 1531 1535 1540 1545 1549 1551 1551 1554 1556 1558 1561 1564 1567 1568 1569 1571 1572 1573 1574 1574 1571 1571 1572 1570 1569 1568 1566 1566 1565 1563 1562 1561 1560 1559 1558 1557 1556 1556 1556 1556
1509 1512 1518 1526 1531 1535 1539 1543 1546 1548 1550 1553 1557 1559 1561 1563 1564 1566 1568 1569 1570 1571 1571 1571 1569 1568 1566 1565 1564 1563 1563 1564 1561 1558 1556 1554 1553 1553 1550 1552 1553 1552 1551
1504 1509 1512 1519 1526 1532 1535 1538 1542 1544 1547 1551 1553 1556 1558 1559 1563 1563 1564 1565 1565 1565 1564 1564 1563 1561 1560 1560 1560 1559 1559 1558 1556 1555 1551 1548 1543 1544 1539 1545 1548 1550 1549
1506 1509 1512 1515 1522 1528 1532 1536 1539 1542 1545 1549 1550 1552 1554 1555 1557 1558 1559 1560 1562 1561 1560 1559 1557 1557 1556 1555 1555 1555 1555 1553 1552 1551 1548 1544 1538 1539 1540 1542 1544 1546 1546
1504 1507 1511 1514 1519 1524 1528 1532 1536 1540 1542 1545 1548 1550 1552 1553 1553 1554 1554 1554 1556 1556 1555 1554 1553 1553 1554 1553 1551 1550 1550 1549 1548 1548 1546 1543 1541 1541 1539 1541 1542 1543 1543
1504 1507 1511 1514 1517 1522 1525 1529 1533 1537 1540 1542 1545 1548 1550 1550 1552 1550 1550 1552 1553 1551 1550 1549 1550 1550 1549 1549 1548 1547 1547 1545 1545 1544 1544 1542 1541 1540 1539 1538 1538 1537 1539
1503 1506 1510 1513 1516 1519 1523 1527 1530 1533 1537 1540 1542 1544 1546 1547 1547 1549 1550 1550 1549 1548 1548 1548 1547 1546 1546 1546 1543 1543 1544 1541 1541 1541 1540 1538 1537 1537 1537 1535 1535 1536 1535
1502 1504 1508 1512 1515 1517 1520 1524 1528 1532 1535 1538 1541 1543 1544 1546 1546 1547 1547 1547 1547 1545 1543 1542 1543 1542 1542 1540 1541 1539 1538 1538 1536 1536 1536 1535 1533 1532 1532 1531 1531 1530 1529
1498 1501 1506 1511 1514 1516 1519 1523 1527 1531 1534 1536 1539 1541 1541 1542 1543 1543 1543 1543 1542 1542 1541 1540 1539 1540 1537 1536 1536 1536 1533 1533 1533 1532 1531 1529 1528 1527 1527 1526 1525 1524 1523
1495 1498 1503 1508 1511 1514 1517 1521 1525 1528 1530 1532 1535 1537 1537 1539 1539 1540 1541 1541 1542 1541 1539 1538 1536 1535 1534 1533 1533 1532 1532 1529 1529 1527 1526 1525 1524 1521 1520 1519 1519 1518 1516
1492 1494 1498 1504 1508 1512 1516 1519 1522 1525 1527 1528 1531 1533 1535 1537 1539 1540 1540 1539 1539 1538 1537 1536 1534 1533 1532 1529 1528 1527 1526 1524 1523 1522 1520 1521 1519 1519 1517 1514 1513 1512 1511
1488 1492 1494 1499 1504 1509 1514 1517 1520 1522 1524 1527 1531 1534 1536 1537 1536 1536 1536 1535 1534 1533 1532 1531 1529 1527 1526 1524 1524 1522 1521 1518 1517 1516 1516 1515 1513 1512 1512 1510 1509 1508 1508
1480 1488 1492 1496 1502 1506 1510 1514 1517 1520 1524 1527 1529 1531 1532 1533 1534 1534 1533 1533 1532 1530 1528 1526 1524 1522 1521 1519 1516 1516 1515 1513 1512 1511 1510 1509 1508 1506 1504 1503 1502 1501 1501
1471 1482 1490 1495 1501 1505 1508 1512 1516 1520 1523 1526 1527 1529 1531 1532 1531 1532 1531 1529 1526 1524 1524 1521 1519 1516 1512 1511 1510 1508 1506 1505 1505 1505 1503 1502 1500 1500 1499 1496 1496 1494 1494
1461 1475 1484 1491 1499 1504 1507 1510 1515 1519 1521 1523 1525 1526 1528 1529 1529 1528 1527 1527 1524 1520 1517 1514 1512 1508 1506 1503 1501 1501 1500 1500 1499 1497 1497 1497 1491 1492 1492 1490 1489 1487 1488
1458 1473 1481 1492 1497 1502 1505 1508 1513 1517 1518 1519 1520 1522 1524 1526 1528 1524 1523 1523 1519 1516 1513 1509 1508 1506 1503 1500 1497 1496 1494 1494 1493 1490 1488 1487 1486 1484 1483 1481 1480 1480 1480
1464 1474 1485 1494 1500 1501 1503 1507 1509 1512 1516 1518 1519 1519 1518 1521 1519 1520 1519 1513 1516 1513 1509 1506 1503 1501 1500 1497 1495 1491 1490 1487 1488 1485 1483 1480 1478 1476 1474 1473 1473 1471 1470
1471 1479 1486 1494 1501 1502 1503 1503 1506 1509 1510 1516 1513 1515 1516 1514 1515 1512 1515 1512 1508 1506 1504 1503 1499 1496 1494 1493 1491 1487 1483 1483 1481 1481 1475 1470 1469 1468 1467 1465 1463 1461 1460
1477 1481 1489 1497 1499 1498 1498 1503 1505 1510 1514 1518 1512 1510 1512 1510 1512 1509 1508 1506 1504 1500 1499 1498 1495 1492 1488 1487 1483 1480 1477 1474 1470 1468 1465 1462 1460 1458 1457 1456 1454 1453 1452
1483 1489 1494 1496 1497 1498 1498 1498 1499 1503 1507 1510 1515 1510 1510 1508 1507 1504 1501 1502 1496 1492 1491 1489 1487 1484 1480 1478 1474 1471 1468 1463 1461 1455 1453 1450 1449 1447 1446 1445 1444 1443 1442